Location: Silverdale
(47.6506°N, 122.6941°W)
Time: 10:12:41
(UTC+00:00)

S-56A Canister/Altair - Pass Details

Date: 06 October 2022
Orbit: 638 x 2494 km, 38.9° (Epoch: 04 December)

Event Time Altitude Azimuth Distance (km) Brightness Sun altitude
Exits shadow 13:46:54 - 267° (W) 3,831 10.4 -5.9°
Reaches altitude 10° 13:48:27 10° 261° (W) 3,380 10.2 -5.6°
Maximum altitude 13:53:51 20° 219° (SW) 2,286 9.6 -4.7°
Drops below altitude 10° 13:58:07 10° 174° (S) 2,572 10.4 -4.0°
Sets 14:00:59 0° 156° (SSE) 3,298 11.2 -3.5°
